WX1N Weather Reports


Display with metric or nautical units.
time (UTC)temp
F
wind
direction
speed
MPH
gust
MPH
rain 1hr
in
rain 24hr
in
rain mn
in
humidity
%
barometer
mb
20260504050503 35 0 0.0 0.0 0.00 0.00 0.00 88 1008.6
20260504050004 35 0 0.0 0.0 0.00 0.00 0.00 87 1008.6
20260504045503 35 0 0.0 0.0 0.00 0.00 0.00 87 1008.6
20260504045003 35 0 0.0 0.0 0.00 0.00 0.00 87 1008.6
20260504044503 34 0 0.0 0.0 0.00 0.00 0.00 87 1008.7
20260504044003 34 0 0.0 0.0 0.00 0.00 0.00 87 1008.5
20260504043503 34 0 0.0 0.0 0.00 0.00 0.00 87 1008.6
20260504043003 34 0 0.0 0.0 0.00 0.00 0.00 87 1008.6
20260504042504 34 0 0.0 0.0 0.00 0.00 0.00 87 1008.7
20260504042003 33 0 0.0 0.0 0.00 0.00 0.00 87 1008.7
20260504041503 33 0 0.0 0.0 0.00 0.00 0.00 87 1008.7
20260504041003 33 0 0.0 0.0 0.00 0.00 0.00 87 1008.6
20260504040503 32 0 0.0 0.0 0.00 0.00 0.00 87 1008.6
20260504040004 32 0 0.0 0.0 0.00 0.00 0.00 87 1008.6
20260504035503 32 0 0.0 0.0 0.00 0.00 0.00 87 1008.5
20260504035003 32 0 0.0 0.0 0.00 0.00 0.00 87 1008.4
20260504034503 31 0 0.0 0.0 0.00 0.00 0.00 88 1008.6
20260504034003 31 0 0.0 0.0 0.00 0.00 0.00 88 1008.4
20260504033504 30 0 0.0 0.0 0.00 0.00 0.00 88 1008.5
20260504033003 30 0 0.0 0.0 0.00 0.00 0.00 88 1008.5
20260504032503 31 0 0.0 0.0 0.00 0.00 0.00 89 1008.5
20260504032003 31 0 0.0 0.0 0.00 0.00 0.00 88 1008.5
20260504031503 31 0 0.0 0.0 0.00 0.00 0.00 88 1008.5
20260504031003 31 0 0.0 0.0 0.00 0.00 0.00 88 1008.5
20260504030503 32 0 0.0 0.0 0.00 0.00 0.00 88 1008.5
20260504030004 32 0 0.0 0.0 0.00 0.00 0.00 88 1008.5
20260504025503 32 0 0.0 0.0 0.00 0.00 0.00 88 1008.5
20260504025003 32 0 0.0 0.0 0.00 0.00 0.00 88 1008.4
20260504024504 32 0 0.0 0.0 0.00 0.00 0.00 88 1008.4
20260504024003 32 0 0.0 0.0 0.00 0.00 0.00 88 1008.4
20260504023503 32 0 0.0 0.0 0.00 0.00 0.00 88 1008.4
20260504023003 32 0 0.0 0.0 0.00 0.00 0.00 88 1008.4
20260504022503 32 0 0.0 0.0 0.00 0.00 0.00 88 1008.4
20260504022004 32 0 0.0 0.0 0.00 0.00 0.00 87 1008.5
20260504021503 33 0 0.0 0.0 0.00 0.00 0.00 87 1008.5
20260504021003 33 0 0.0 0.0 0.00 0.00 0.00 87 1008.5
20260504020503 33 0 0.0 0.0 0.00 0.00 0.00 85 1008.4
20260504020003 34 0 0.0 0.0 0.00 0.00 0.00 85 1008.4
20260504015503 34 0 0.0 0.0 0.00 0.00 0.00 85 1008.3
20260504015003 34 0 0.0 0.0 0.00 0.00 0.00 85 1008.3
20260504014503 34 0 0.0 0.0 0.00 0.00 0.00 84 1008.3
20260504014003 35 0 0.0 0.0 0.00 0.00 0.00 84 1008.3
20260504013503 35 0 0.0 0.0 0.00 0.00 0.00 84 1008.2
20260504013003 35 0 0.0 0.0 0.00 0.00 0.00 83 1008.2
20260504012503 36 0 0.0 0.0 0.00 0.00 0.00 82 1008.0
20260504012004 36 0 0.0 0.0 0.00 0.00 0.00 80 1008.0
20260504011503 36 0 0.0 0.0 0.00 0.00 0.00 79 1007.8
20260504011003 36 0 0.0 0.0 0.00 0.00 0.00 79 1007.8
20260504010503 37 0 0.0 0.0 0.00 0.00 0.00 77 1007.7
20260504010003 37 0 0.0 0.0 0.00 0.00 0.00 77 1007.7
20260504005503 38 0 0.0 0.0 0.00 0.00 0.00 78 1007.6
20260504005004 38 0 0.0 0.0 0.00 0.00 0.00 77 1007.5
20260504004504 38 0 0.0 0.0 0.00 0.00 0.00 77 1007.5
20260504004003 39 0 0.0 0.0 0.00 0.00 0.00 73 1007.4
20260504003503 39 0 0.0 0.0 0.00 0.00 0.00 71 1007.4
20260504003003 40 0 0.0 0.0 0.00 0.00 0.00 70 1007.3
20260504002503 40 0 0.0 0.0 0.00 0.00 0.00 69 1007.3
20260504002003 41 0 0.0 0.0 0.00 0.00 0.00 67 1007.2
20260504001503 41 0 0.0 0.0 0.00 0.00 0.00 67 1007.1
20260504001004 42 0 0.0 0.0 0.00 0.00 0.00 67 1007.1
20260504000503 42 0 0.0 0.0 0.00 0.00 0.00 64 1007.1
20260504000004 43 0 0.0 0.0 0.00 0.00 0.00 65 1007.0
20260503235503 44 0 0.0 0.0 0.00 0.00 0.00 58 1006.9
20260503235003 45 0 0.0 0.0 0.00 0.00 0.00 59 1006.9
20260503234504 46 0 0.0 0.0 0.00 0.00 0.00 55 1006.9
20260503234003 47 0 0.0 0.0 0.00 0.00 0.00 52 1006.9
20260503233504 48 0 0.0 0.0 0.00 0.00 0.00 49 1006.9
20260503233003 49 0 0.0 0.0 0.00 0.00 0.00 46 1006.8
20260503232503 50 0 0.0 0.0 0.00 0.00 0.00 45 1006.7
20260503232004 50 0 0.0 0.0 0.00 0.00 0.00 44 1006.7
20260503231503 51 0 0.0 0.0 0.00 0.00 0.00 44 1006.7
20260503231004 51 0 0.0 0.0 0.00 0.00 0.00 43 1006.7
20260503230503 52 0 0.0 0.0 0.00 0.00 0.00 41 1006.7
20260503230003 52 0 0.0 0.0 0.00 0.00 0.00 43 1006.7
20260503225503 52 0 0.0 0.0 0.00 0.00 0.00 41 1006.7
20260503225003 53 0 0.0 0.0 0.00 0.00 0.00 41 1006.8
20260503224504 53 0 0.0 0.0 0.00 0.00 0.00 41 1006.7
20260503224003 53 0 0.0 0.0 0.00 0.00 0.00 42 1006.6
20260503223503 53 0 0.0 0.0 0.00 0.00 0.00 43 1006.7
20260503223004 52 0 0.0 0.0 0.00 0.00 0.00 43 1006.7
20260503222503 52 0 0.0 0.0 0.00 0.00 0.00 45 1006.6
20260503222003 52 0 0.0 0.0 0.00 0.00 0.00 44 1006.7
20260503221503 52 0 0.0 0.0 0.00 0.00 0.00 46 1006.6
20260503221003 52 0 0.0 0.0 0.00 0.00 0.00 45 1006.7
20260503220503 52 0 0.0 0.0 0.00 0.00 0.00 44 1006.7
20260503220003 52 0 0.0 0.0 0.00 0.00 0.00 42 1006.7
20260503215504 52 0 0.0 0.0 0.00 0.00 0.00 44 1006.6
20260503215003 52 0 0.0 0.0 0.00 0.00 0.00 45 1006.6
20260503214503 52 0 0.0 0.0 0.00 0.00 0.00 43 1006.6
20260503214003 52 0 0.0 0.0 0.00 0.00 0.00 46 1006.6
20260503213503 51 0 0.0 0.0 0.00 0.00 0.00 45 1006.5
20260503213003 51 0 0.0 0.0 0.00 0.00 0.00 43 1006.6
20260503212503 51 0 0.0 0.0 0.00 0.00 0.00 43 1006.6
20260503212003 51 0 0.0 0.0 0.00 0.00 0.00 44 1006.5
20260503211503 52 0 0.0 0.0 0.00 0.00 0.00 43 1006.5
20260503211004 52 0 0.0 0.0 0.00 0.00 0.00 43 1006.5
20260503210503 52 0 0.0 0.0 0.00 0.00 0.00 44 1006.5
20260503210004 52 0 0.0 0.0 0.00 0.00 0.00 44 1006.5
20260503205503 52 0 0.0 0.0 0.00 0.00 0.00 44 1006.5
20260503205003 51 0 0.0 0.0 0.00 0.00 0.00 44 1006.5
20260503204504 51 0 0.0 0.0 0.00 0.00 0.00 45 1006.5
20260503204003 51 0 0.0 0.0 0.00 0.00 0.00 44 1006.6
20260503203503 51 0 0.0 0.0 0.00 0.00 0.00 42 1006.5
20260503203003 51 0 0.0 0.0 0.00 0.00 0.00 43 1006.5
20260503202503 51 0 0.0 0.0 0.00 0.00 0.00 44 1006.4
20260503202003 51 0 0.0 0.0 0.00 0.00 0.00 43 1006.4
20260503201503 51 0 0.0 0.0 0.00 0.00 0.00 44 1006.4
20260503201004 51 0 0.0 0.0 0.00 0.00 0.00 46 1006.5
20260503200503 51 0 0.0 0.0 0.00 0.00 0.00 46 1006.4
20260503200004 51 0 0.0 0.0 0.00 0.00 0.00 46 1006.4
20260503195503 51 0 0.0 0.0 0.00 0.00 0.00 42 1006.5
20260503195003 51 0 0.0 0.0 0.00 0.00 0.00 45 1006.6
20260503194504 51 0 0.0 0.0 0.00 0.00 0.00 44 1006.6
20260503194003 51 0 0.0 0.0 0.00 0.00 0.00 44 1006.7
20260503193503 51 0 0.0 0.0 0.00 0.00 0.00 43 1006.7
20260503193003 51 0 0.0 0.0 0.00 0.00 0.00 43 1006.8
20260503192503 51 0 0.0 0.0 0.00 0.00 0.00 44 1006.7
20260503192004 51 0 0.0 0.0 0.00 0.00 0.00 46 1006.7
20260503191503 51 0 0.0 0.0 0.00 0.00 0.00 46 1006.7
20260503191004 51 0 0.0 0.0 0.00 0.00 0.00 42 1006.7
20260503190503 52 0 0.0 0.0 0.00 0.00 0.00 41 1006.8
20260503190003 52 0 0.0 0.0 0.00 0.00 0.00 41 1006.7
20260503185503 51 0 0.0 0.0 0.00 0.00 0.00 44 1006.8
20260503185003 51 0 0.0 0.0 0.00 0.00 0.00 42 1006.8
20260503184504 50 0 0.0 0.0 0.00 0.00 0.00 45 1006.8
20260503184003 50 0 0.0 0.0 0.00 0.00 0.00 44 1006.8
20260503183504 50 0 0.0 0.0 0.00 0.00 0.00 43 1006.8
20260503183003 50 0 0.0 0.0 0.00 0.00 0.00 43 1006.6
20260503182503 50 0 0.0 0.0 0.00 0.00 0.00 44 1006.6
20260503182003 51 0 0.0 0.0 0.00 0.00 0.00 41 1006.5
20260503181504 52 0 0.0 0.0 0.00 0.00 0.00 41 1006.4
20260503181004 52 0 0.0 0.0 0.00 0.00 0.00 39 1006.2
20260503180503 53 0 0.0 0.0 0.00 0.00 0.00 38 1006.0
20260503180004 53 0 0.0 0.0 0.00 0.00 0.00 37 1006.1
20260503175503 54 0 0.0 0.0 0.00 0.00 0.00 38 1006.1
20260503175003 54 0 0.0 0.0 0.00 0.00 0.00 40 1006.1
20260503174503 53 0 0.0 0.0 0.00 0.00 0.00 42 1006.1
20260503174003 52 0 0.0 0.0 0.00 0.00 0.00 40 1006.1
20260503173504 52 0 0.0 0.0 0.00 0.00 0.00 42 1006.1
20260503173003 52 0 0.0 0.0 0.00 0.00 0.00 43 1006.1
20260503172504 52 0 0.0 0.0 0.00 0.00 0.00 40 1006.1
20260503172004 51 0 0.0 0.0 0.00 0.00 0.00 43 1006.1
20260503171503 51 0 0.0 0.0 0.00 0.00 0.00 41 1006.2
20260503171004 52 0 0.0 0.0 0.00 0.00 0.00 42 1006.2
20260503170503 52 0 0.0 0.0 0.00 0.00 0.00 43 1006.1
20260503151003 47 0 0.0 0.0 0.00 0.00 0.00 55 1007.0
20260503150504 47 0 0.0 0.0 0.00 0.00 0.00 56 1007.0
20260503131004 45 0 0.0 0.0 0.00 0.00 0.00 71 1007.7
20260503130503 45 0 0.0 0.0 0.00 0.00 0.00 72 1007.7
20260503110504 39 0 0.0 0.0 0.00 0.00 0.00 79 1007.7
20260503090504 37 0 0.0 0.0 0.00 0.00 0.00 80 1008.0
20260503081504 36 0 0.0 0.0 0.00 0.00 0.00 80 1008.2
20260503081003 36 0 0.0 0.0 0.00 0.00 0.00 80 1008.4
20260503080504 35 0 0.0 0.0 0.00 0.00 0.00 80 1008.5
20260503072504 34 0 0.0 0.0 0.00 0.00 0.00 82 1008.5
20260503072003 34 0 0.0 0.0 0.00 0.00 0.00 82 1008.6
20260503071504 34 0 0.0 0.0 0.00 0.00 0.00 82 1008.6
20260503071003 34 0 0.0 0.0 0.00 0.00 0.00 82 1008.6
20260503070504 34 0 0.0 0.0 0.00 0.00 0.00 82 1008.7
20260503055004 34 0 0.0 0.0 0.00 0.00 0.00 83 1009.4
20260503054503 34 0 0.0 0.0 0.00 0.00 0.00 83 1009.4
20260503054004 34 0 0.0 0.0 0.00 0.00 0.00 83 1009.4